Temperature
18 18 17 16 15 15 14 13 12 12 12 12 11 11 11 11 11 10 10 10 10 10 10 10 10 10 10 11 11 11 12 12 11 11 11 11 11 11 12 13 13 13 13
19 19 17 16 16 15 14 13 12 12 12 11 11 11 11 10 10 10 10 10 10 9 9 10 10 10 10 11 11 11 12 11 11 10 10 11 10 11 11 11 12 12 12
19 19 18 17 16 15 14 13 12 12 12 11 11 11 10 10 10 10 10 10 10 10 10 10 10 10 10 11 11 11 11 11 10 10 10 10 10 10 10 11 11 11 11
19 19 18 17 16 15 14 13 12 12 11 11 11 10 10 10 10 10 10 10 10 10 10 10 10 10 11 11 11 11 11 11 10 10 10 10 10 10 10 10 10 10 11
19 19 18 17 16 15 14 13 12 11 11 11 10 10 10 10 10 10 10 10 10 10 10 10 10 11 11 11 12 11 11 10 10 10 10 10 10 9 10 10 10 10 10
19 18 18 17 16 15 14 13 12 11 11 10 10 10 10 10 10 10 10 10 10 10 10 11 11 11 11 11 12 11 11 10 10 10 10 10 10 9 9 10 10 10 10
18 18 18 17 16 15 13 12 12 11 11 10 10 10 10 9 9 10 10 10 10 10 10 10 11 11 11 11 11 11 11 10 10 10 9 10 10 9 9 9 9 9 10
18 17 18 17 16 14 13 12 12 11 11 10 10 10 9 9 9 9 9 10 10 10 10 10 11 11 11 11 11 11 11 10 10 9 9 10 10 10 9 10 10 10 10
17 16 17 16 15 14 13 12 11 11 11 10 10 9 9 9 9 9 9 9 10 10 10 10 11 11 11 11 11 11 10 10 10 10 10 10 10 10 10 10 10 10 10
17 16 16 16 15 14 12 12 11 11 10 10 10 9 9 9 9 9 9 9 9 10 10 10 10 10 10 10 10 10 10 10 10 10 10 10 10 10 10 10 11 11 11
16 15 15 15 14 13 12 11 11 11 10 10 10 9 9 9 9 9 9 9 9 9 10 10 10 10 10 10 10 10 10 10 10 10 10 10 10 10 10 10 11 11 11
16 15 14 14 14 13 12 11 11 11 10 10 10 9 9 9 9 8 9 9 9 9 9 10 10 10 10 10 10 10 10 10 10 10 10 11 10 10 10 10 10 10 10
16 15 14 13 13 12 12 11 11 11 10 10 10 9 9 9 8 8 8 8 9 9 9 9 9 9 9 9 9 9 10 10 10 10 10 10 10 10 10 10 11 10 10
16 15 14 13 13 12 12 11 11 11 10 10 10 9 9 9 8 8 8 8 8 9 9 9 9 9 8 8 8 9 9 9 9 10 10 10 10 10 10 10 10 10 10
16 15 14 13 13 12 12 11 11 11 10 10 10 9 9 9 8 8 8 8 8 8 8 8 8 8 8 8 8 8 9 9 9 9 9 10 10 10 10 10 10 10 10
16 15 14 13 13 12 12 11 11 10 10 10 10 9 9 9 8 8 8 8 8 8 8 8 8 8 8 8 8 8 8 8 9 9 9 9 10 10 10 10 10 10 10
15 15 14 13 12 12 11 11 11 10 10 10 10 9 9 9 9 8 8 8 8 8 8 7 7 7 7 7 7 7 8 8 8 8 8 9 9 9 10 10 10 10 10
15 14 14 13 12 12 11 11 11 10 10 10 9 9 9 9 9 8 8 8 8 8 7 7 7 7 7 7 7 7 7 7 8 8 8 8 9 9 9 10 10 10 10
15 14 14 13 12 11 11 11 10 10 10 10 9 9 9 9 9 8 8 8 8 8 7 7 7 7 7 7 7 7 7 7 7 7 8 8 8 9 9 9 9 9 9
14 14 14 13 12 11 11 10 10 10 10 9 9 9 9 9 9 8 8 8 8 8 7 7 7 7 7 6 6 6 7 7 7 8 8 8 8 8 8 8 8 8 8
14 13 13 13 12 11 11 10 10 10 10 10 10 10 9 9 9 9 8 8 8 8 8 7 7 7 6 6 6 6 6 7 7 8 8 8 8 8 7 7 7 7 8
13 13 13 13 12 12 11 11 10 10 10 10 10 10 9 9 9 9 8 8 8 8 8 7 7 6 6 6 5 5 4 5 7 7 7 7 7 7 7 6 6 6 7
13 13 13 13 12 12 12 11 11 11 10 10 10 10 9 9 9 8 8 8 8 8 7 7 7 6 6 6 5 4 4 4 5 5 6 6 6 6 6 6 6 6 5
13 13 13 13 12 12 12 12 11 11 10 10 9 9 9 9 8 8 8 8 7 7 7 7 6 6 5 5 5 5 4 4 3 3 4 5 5 5 5 5 5 5 5
13 13 13 13 12 12 12 11 11 10 10 9 9 9 9 8 8 8 7 7 7 7 7 6 6 6 5 5 5 4 4 3 3 2 2 3 4 5 5 4 4 4 4
13 13 12 12 12 12 11 11 11 10 10 9 9 8 8 8 7 7 7 7 6 6 6 6 5 5 5 5 4 4 4 3 3 3 2 2 2 3 3 3 3 3 4
Wind_Speed
11 21 23 22 20 18 16 14 14 13 12 12 12 12 12 12 12 13 13 13 13 13 14 15 15 15 16 16 17 17 17 17 18 18 19 19 19 19 19 18 17 17 19
14 23 25 23 21 19 17 15 14 13 12 12 12 12 11 11 12 12 13 13 13 13 13 14 14 14 14 15 15 15 15 14 15 16 17 17 17 18 18 18 17 16 17
16 24 25 24 22 20 18 16 14 13 12 12 12 11 11 11 11 11 12 12 12 12 12 13 13 13 13 14 14 14 13 13 13 14 15 15 15 16 16 16 16 16 16
18 24 23 24 22 20 18 17 15 14 13 12 12 11 11 10 10 11 11 11 11 11 11 11 12 12 12 12 12 12 11 11 12 14 14 14 13 14 14 15 15 15 15
16 23 24 25 23 21 19 17 16 14 13 12 12 11 10 10 9 9 10 10 10 10 10 10 10 10 11 11 11 10 9 9 10 12 14 14 13 12 13 13 13 13 13
13 22 24 25 23 21 19 18 16 15 13 13 12 11 11 10 9 9 8 8 8 8 8 9 9 9 9 9 9 9 8 9 10 11 13 14 12 10 11 11 11 11 12
12 20 25 25 23 21 20 18 17 15 14 13 12 11 10 10 9 8 8 7 7 7 7 7 7 7 7 7 8 7 7 8 8 8 10 12 10 9 9 9 9 9 9
12 17 25 24 23 21 20 19 17 16 14 13 12 11 10 9 9 8 7 6 5 5 5 5 5 5 5 5 5 5 6 7 7 6 8 9 7 7 7 7 7 7 7
11 14 21 21 21 21 20 19 18 16 15 13 12 11 10 9 9 8 7 6 5 4 4 3 3 3 3 3 3 3 4 6 7 5 4 6 4 4 5 5 5 5 5
9 10 17 19 19 19 19 19 18 17 15 14 13 12 11 10 9 8 8 7 6 4 3 2 1 1 0 1 1 2 4 7 9 4 0 3 1 3 4 4 4 4 4
8 9 13 16 18 18 18 18 19 18 17 15 13 13 12 11 11 11 10 9 7 5 5 4 4 4 4 5 6 5 6 9 9 4 2 2 3 5 6 6 6 6 6
9 9 10 12 15 17 16 17 17 16 16 15 14 15 14 12 11 11 12 11 9 7 7 7 7 7 8 10 11 9 9 12 11 7 8 8 8 9 9 9 9 9 9
11 9 9 10 15 14 12 14 14 14 15 15 14 16 15 12 10 10 11 11 10 9 10 10 11 11 13 12 8 11 13 10 7 8 8 10 11 12 13 13 13 13 13
11 11 9 9 11 13 13 11 12 11 12 12 13 14 13 10 8 9 10 12 13 12 12 10 10 12 12 11 10 11 12 11 11 12 12 13 14 15 16 16 16 16 16
9 11 9 9 10 11 10 9 10 10 11 12 13 13 12 9 7 7 8 9 10 10 10 9 9 10 10 10 11 11 11 12 13 15 15 16 17 18 19 20 20 20 20
8 10 9 9 9 10 7 6 7 10 11 12 13 14 14 11 9 7 7 8 8 9 9 9 9 9 8 8 8 10 12 14 15 17 18 19 20 21 22 23 23 23 23
7 9 9 8 8 9 8 8 8 9 10 9 11 13 13 12 10 9 6 6 9 11 11 9 9 8 6 6 6 9 11 14 15 17 18 19 20 22 24 25 26 26 26
6 8 8 6 7 8 6 6 6 8 8 8 9 10 12 13 12 9 6 6 10 10 9 5 4 4 5 5 6 6 8 11 14 17 18 19 20 20 23 26 27 28 28
7 8 8 7 6 7 6 6 5 5 5 5 6 7 9 10 11 9 7 7 9 8 6 4 4 5 6 6 7 7 6 7 9 14 14 18 21 22 22 25 28 28 29
8 9 9 7 5 6 5 4 3 3 3 3 3 4 6 7 8 8 6 7 7 4 4 4 6 6 6 6 8 9 8 8 8 9 12 17 19 22 22 23 24 25 29
8 9 8 8 6 5 4 4 3 3 2 1 2 4 5 7 8 7 5 5 6 4 6 6 6 6 6 5 5 7 8 10 13 13 11 11 13 19 21 21 21 22 23
8 8 8 8 7 6 5 4 3 3 2 2 2 4 6 7 8 7 6 4 5 5 6 6 6 5 5 4 4 4 5 5 7 11 10 10 11 12 13 18 19 20 21
8 7 7 8 8 7 6 5 3 2 1 1 1 2 4 6 7 7 6 6 5 5 6 7 7 7 6 5 5 5 5 5 5 4 6 6 7 6 7 11 15 19 21
7 7 8 8 8 7 6 5 4 2 1 2 1 2 3 5 5 6 6 6 5 4 6 7 7 6 7 7 5 7 8 7 6 6 4 5 6 7 8 8 10 15 20
7 7 7 8 7 6 5 4 2 2 1 1 1 1 2 2 3 4 5 5 4 4 6 7 7 7 6 7 7 6 7 7 9 10 11 7 7 8 10 10 8 11 18
6 6 7 7 7 6 5 4 4 3 3 2 2 2 2 2 1 2 3 4 5 4 6 6 7 8 8 8 8 7 8 7 7 9 12 10 10 8 9 8 8 7 14
Wind_Direction
139 154 162 157 154 151 147 143 136 128 120 114 110 105 98 93 89 88 82 77 73 70 68 67 66 64 63 63 64 63 64 64 63 63 62 61 61 60 58 57 56 52 53
143 155 162 159 157 155 152 147 141 134 128 122 115 109 103 96 91 89 83 78 74 71 68 67 67 66 65 64 65 64 64 64 62 62 63 58 59 60 59 57 58 57 56
142 153 163 161 159 158 155 150 147 141 137 131 122 115 111 104 94 89 84 79 75 71 68 67 68 66 66 64 65 64 62 60 56 58 60 56 55 59 58 57 57 56 56
146 153 164 163 162 160 158 154 152 148 144 138 130 124 118 111 102 94 88 83 78 73 70 69 68 67 66 64 63 62 60 54 48 56 53 52 52 57 57 56 56 55 55
146 154 164 164 164 163 161 158 156 154 151 145 138 134 127 119 111 102 94 87 81 76 73 70 69 67 66 65 62 60 52 40 34 53 53 53 47 55 57 55 54 54 53
147 154 161 165 167 166 165 162 161 159 156 152 147 142 136 127 120 110 102 96 89 82 76 72 69 67 65 63 61 55 39 26 27 56 56 51 40 50 54 53 53 52 51
150 154 160 167 169 169 168 166 164 163 161 158 154 150 145 137 130 122 116 107 99 92 82 74 70 67 63 61 57 48 28 12 22 51 63 59 41 45 49 47 45 45 46
149 150 158 169 171 171 171 170 168 168 166 164 161 158 154 149 144 140 134 125 116 105 94 82 74 67 62 56 51 40 16 359 354 17 66 68 44 35 39 39 35 35 37
146 147 155 169 173 174 175 174 173 172 172 171 169 167 164 159 159 156 152 147 142 132 118 103 87 72 61 51 39 21 353 333 324 344 43 73 44 15 16 17 14 15 17
144 148 154 168 173 175 178 178 176 175 176 177 175 172 169 168 171 171 169 170 168 165 164 166 167 176 274 274 283 297 301 301 291 279 238 120 63 327 323 328 329 329 332
154 158 156 167 172 175 177 180 178 178 180 180 178 172 170 175 182 185 184 180 185 193 204 215 226 238 250 250 243 245 264 271 274 264 253 203 242 274 280 284 287 290 290
173 175 165 165 169 174 177 175 178 179 181 182 180 175 178 189 192 186 182 180 194 209 223 233 237 245 250 245 232 229 243 252 254 249 237 230 244 258 265 270 271 272 273
173 176 173 165 164 168 170 168 175 177 178 186 188 181 184 190 180 160 163 179 197 211 225 232 229 234 238 236 209 211 234 251 258 262 249 237 247 255 259 263 265 265 264
163 170 175 162 158 164 167 166 168 170 174 182 188 185 181 180 175 174 182 188 200 207 217 221 217 233 236 236 227 228 241 245 246 250 253 247 251 256 258 260 261 262 261
155 161 171 164 156 159 162 165 167 169 173 179 182 187 185 179 181 187 196 205 210 211 210 216 228 244 246 244 242 241 245 249 250 247 246 249 251 255 258 260 260 259 259
150 155 163 165 157 155 159 163 169 171 174 178 181 188 193 195 194 195 202 211 218 223 225 222 230 241 246 245 243 244 246 249 252 252 249 248 250 253 256 258 259 259 258
139 146 153 162 157 155 161 167 170 170 171 175 179 190 197 204 205 203 207 215 221 229 234 236 243 252 255 255 253 254 255 254 252 252 252 249 247 250 254 257 258 259 258
113 125 132 143 155 156 155 157 158 169 171 172 181 192 204 210 212 211 211 220 230 234 233 230 233 251 257 255 254 253 253 254 252 251 251 250 247 246 249 255 257 258 259
110 115 122 133 152 147 141 140 147 155 156 161 182 197 214 222 223 222 221 229 238 239 235 232 233 236 254 261 263 262 256 253 254 256 251 248 246 244 243 250 256 259 261
101 110 117 121 131 130 129 129 127 121 119 138 181 212 226 232 234 234 232 238 246 247 246 238 242 243 247 255 270 272 266 262 259 256 255 253 249 246 245 245 249 255 260
93 104 114 122 124 116 117 128 130 134 131 143 214 238 241 242 244 241 237 239 241 243 245 244 247 254 258 259 276 284 272 256 254 254 250 249 246 246 244 243 244 246 252
96 102 109 114 114 108 108 109 109 115 133 161 201 229 244 249 249 245 237 235 239 246 255 254 251 256 260 245 246 290 301 297 258 251 247 243 241 238 238 242 244 244 244
86 92 101 102 102 101 106 102 94 92 78 181 216 228 237 245 248 244 243 243 244 241 249 251 246 245 255 251 220 224 260 272 309 294 281 265 252 245 242 245 245 245 244
90 90 96 99 99 104 112 116 134 146 167 201 195 211 231 232 233 238 244 249 249 246 251 252 247 242 244 253 249 233 235 240 273 295 280 283 290 274 265 257 251 248 245
106 103 104 103 104 106 106 112 110 92 79 45 26 345 309 284 247 241 247 255 259 254 256 258 260 252 243 244 244 245 252 254 248 262 278 272 267 260 261 257 252 250 247
114 111 113 111 108 105 100 100 91 76 41 18 354 342 321 304 284 263 255 256 262 260 259 259 257 256 253 252 250 245 245 246 248 253 268 272 271 264 261 262 263 258 257
Height
1539 1540 1541 1543 1544 1546 1548 1549 1550 1552 1553 1554 1554 1555 1555 1556 1556 1556 1556 1556 1556 1556 1556 1556 1556 1556 1556 1556 1556 1556 1556 1556 1556 1556 1556 1556 1556 1556 1556 1556 1556 1556 1556
1539 1540 1541 1543 1544 1546 1548 1549 1551 1552 1553 1554 1555 1556 1556 1557 1557 1557 1557 1557 1557 1557 1557 1557 1557 1557 1557 1556 1556 1557 1557 1557 1557 1557 1557 1557 1557 1557 1557 1556 1556 1556 1556
1538 1539 1541 1542 1544 1546 1548 1549 1551 1552 1553 1555 1556 1556 1557 1557 1558 1558 1558 1558 1558 1558 1558 1558 1557 1557 1557 1557 1557 1557 1558 1558 1558 1558 1558 1558 1558 1558 1557 1557 1557 1557 1557
1538 1539 1541 1542 1544 1546 1548 1549 1551 1552 1554 1555 1556 1557 1557 1558 1558 1559 1558 1558 1558 1558 1558 1558 1558 1558 1558 1558 1558 1558 1559 1559 1559 1559 1559 1558 1558 1559 1558 1558 1558 1557 1557
1537 1539 1540 1542 1544 1546 1548 1549 1551 1553 1554 1555 1556 1557 1558 1558 1559 1559 1559 1559 1559 1559 1559 1559 1559 1559 1558 1558 1558 1559 1559 1560 1559 1560 1559 1559 1559 1559 1559 1558 1558 1558 1558
1537 1538 1540 1542 1544 1545 1547 1549 1551 1553 1554 1556 1557 1558 1558 1559 1559 1559 1560 1560 1560 1560 1560 1560 1560 1559 1559 1559 1559 1560 1560 1560 1560 1560 1560 1559 1559 1559 1559 1559 1558 1558 1558
1536 1537 1539 1541 1543 1545 1547 1549 1551 1553 1555 1556 1557 1558 1559 1559 1560 1560 1560 1560 1560 1560 1560 1560 1560 1560 1560 1560 1560 1561 1561 1561 1561 1561 1560 1560 1560 1560 1559 1559 1559 1558 1558
1536 1537 1538 1540 1542 1544 1547 1549 1551 1553 1555 1556 1557 1558 1559 1560 1560 1560 1560 1560 1560 1561 1561 1561 1561 1561 1561 1561 1561 1561 1561 1561 1561 1561 1560 1560 1560 1560 1559 1559 1559 1558 1558
1535 1536 1536 1539 1541 1544 1546 1548 1551 1553 1554 1556 1557 1558 1559 1560 1560 1560 1561 1561 1561 1561 1561 1561 1561 1561 1561 1561 1561 1561 1561 1561 1561 1561 1561 1560 1560 1560 1560 1559 1559 1558 1558
1534 1535 1535 1537 1540 1542 1545 1548 1550 1552 1554 1556 1557 1558 1559 1560 1560 1561 1561 1561 1561 1561 1561 1561 1561 1561 1561 1561 1561 1561 1561 1561 1561 1561 1561 1560 1560 1560 1559 1559 1558 1558 1557
1532 1534 1534 1536 1538 1541 1544 1546 1549 1551 1553 1555 1556 1557 1558 1559 1560 1560 1560 1561 1561 1561 1561 1561 1561 1561 1561 1561 1561 1561 1561 1561 1560 1560 1560 1560 1560 1559 1559 1558 1558 1557 1557
1530 1532 1533 1534 1536 1539 1542 1545 1547 1550 1552 1553 1555 1556 1557 1558 1559 1560 1560 1560 1560 1560 1560 1560 1560 1560 1560 1560 1559 1559 1560 1559 1559 1559 1559 1559 1558 1558 1558 1557 1557 1556 1556
1527 1529 1532 1533 1535 1537 1540 1543 1545 1548 1550 1552 1553 1555 1556 1557 1558 1559 1559 1559 1559 1559 1559 1559 1559 1559 1558 1558 1558 1558 1558 1557 1557 1557 1557 1556 1556 1556 1555 1555 1555 1554 1554
1524 1526 1530 1532 1534 1536 1539 1541 1544 1546 1548 1550 1552 1554 1555 1556 1557 1557 1557 1558 1557 1557 1557 1557 1557 1557 1557 1557 1557 1556 1555 1555 1555 1554 1554 1554 1553 1553 1553 1552 1552 1551 1551
1522 1524 1527 1530 1532 1534 1537 1540 1542 1544 1546 1548 1550 1552 1553 1554 1555 1556 1556 1556 1556 1556 1556 1556 1555 1555 1555 1554 1554 1553 1553 1552 1551 1551 1550 1550 1550 1549 1549 1549 1548 1548 1547
1519 1521 1524 1527 1530 1532 1535 1538 1540 1542 1545 1546 1548 1549 1551 1552 1553 1553 1554 1554 1554 1554 1554 1553 1553 1553 1552 1551 1551 1550 1549 1548 1547 1546 1546 1545 1544 1544 1544 1544 1544 1543 1543
1518 1519 1522 1525 1528 1531 1533 1536 1539 1541 1543 1544 1546 1547 1548 1549 1550 1551 1551 1551 1551 1551 1551 1551 1550 1549 1548 1548 1546 1546 1544 1543 1542 1541 1540 1539 1539 1538 1538 1538 1538 1538 1538
1516 1518 1520 1523 1527 1529 1532 1534 1537 1539 1541 1542 1543 1545 1546 1547 1548 1548 1548 1548 1548 1548 1548 1547 1546 1545 1544 1543 1542 1540 1539 1538 1536 1535 1534 1533 1533 1532 1531 1531 1531 1531 1531
1515 1517 1519 1522 1525 1528 1530 1533 1535 1537 1539 1540 1541 1542 1543 1544 1544 1545 1545 1545 1545 1544 1544 1543 1542 1541 1540 1538 1537 1535 1533 1532 1530 1529 1528 1527 1526 1525 1524 1523 1523 1523 1523
1515 1516 1518 1521 1524 1527 1529 1531 1533 1535 1536 1537 1538 1539 1540 1541 1541 1541 1541 1541 1541 1540 1539 1539 1537 1536 1535 1533 1531 1528 1526 1525 1524 1522 1521 1519 1518 1517 1516 1515 1515 1514 1514
1515 1517 1518 1520 1523 1525 1527 1529 1531 1532 1534 1535 1536 1536 1537 1537 1537 1537 1537 1536 1536 1535 1535 1534 1533 1532 1530 1529 1526 1522 1518 1518 1516 1514 1513 1511 1511 1510 1509 1509 1508 1507 1506
1516 1518 1519 1521 1523 1524 1526 1528 1529 1531 1532 1532 1533 1533 1534 1534 1533 1533 1533 1532 1532 1531 1530 1529 1528 1527 1525 1525 1523 1519 1512 1508 1507 1506 1506 1504 1504 1503 1502 1502 1501 1500 1499
1517 1518 1520 1521 1523 1524 1526 1527 1528 1529 1530 1531 1531 1531 1531 1530 1530 1530 1529 1528 1527 1526 1525 1525 1524 1522 1520 1520 1519 1517 1512 1504 1501 1499 1500 1500 1499 1498 1496 1495 1494 1493 1491
1518 1519 1520 1522 1523 1524 1525 1527 1527 1528 1529 1529 1529 1529 1528 1528 1527 1526 1525 1524 1523 1522 1521 1520 1519 1517 1516 1514 1513 1511 1509 1505 1501 1491 1489 1491 1492 1491 1490 1488 1486 1485 1484
1518 1520 1521 1522 1523 1524 1525 1526 1527 1527 1528 1528 1527 1527 1526 1525 1524 1523 1522 1521 1519 1518 1517 1515 1514 1512 1510 1508 1507 1505 1503 1500 1497 1492 1482 1481 1481 1481 1481 1480 1479 1477 1476
1518 1520 1521 1522 1523 1524 1525 1525 1526 1526 1526 1525 1525 1524 1523 1522 1521 1520 1518 1517 1515 1514 1512 1510 1508 1507 1505 1503 1501 1499 1496 1494 1490 1487 1479 1473 1471 1470 1471 1471 1471 1469 1468